| time (UTC) | temp C | wind direction | speed KPH | gust KPH | rain 1hr cm | rain 24hr cm | rain mn cm | humidity % | barometer mb |
| 20260503220024 | 13 | 246 | 32.2 | 49.9 | 0.00 | 0.00 | 0.00 | 58 | 1012.2 |
| 20260503214518 | 13 | 246 | 43.5 | 57.9 | 0.00 | 0.00 | 0.00 | 52 | 1012.1 |
| 20260503213018 | 15 | 217 | 33.8 | 46.7 | 0.00 | 0.00 | 0.00 | 40 | 1011.9 |
| 20260503211516 | 15 | 239 | 32.2 | 43.5 | 0.00 | 0.00 | 0.00 | 41 | 1012.0 |
| 20260503210028 | 15 | 238 | 30.6 | 48.3 | 0.00 | 0.00 | 0.00 | 40 | 1012.1 |
| 20260503204510 | 15 | 223 | 30.6 | 43.5 | 0.00 | 0.00 | 0.00 | 38 | 1012.2 |
| 20260503203004 | 16 | 238 | 30.6 | 46.7 | 0.00 | 0.00 | 0.00 | 39 | 1012.3 |
| 20260503201523 | 16 | 243 | 30.6 | 41.8 | 0.00 | 0.00 | 0.00 | 39 | 1012.5 |
| 20260503200020 | 16 | 222 | 37.0 | 48.3 | 0.00 | 0.00 | 0.00 | 36 | 1012.9 |
| 20260503194516 | 16 | 235 | 33.8 | 46.7 | 0.00 | 0.00 | 0.00 | 36 | 1012.9 |
| 20260503193013 | 15 | 238 | 30.6 | 38.6 | 0.00 | 0.00 | 0.00 | 37 | 1013.2 |
| 20260503191510 | 16 | 234 | 32.2 | 43.5 | 0.00 | 0.00 | 0.00 | 36 | 1013.3 |
| 20260503190009 | 15 | 230 | 35.4 | 46.7 | 0.00 | 0.00 | 0.00 | 36 | 1013.6 |
| 20260503184535 | 16 | 229 | 32.2 | 45.1 | 0.00 | 0.00 | 0.00 | 37 | 1013.7 |
| 20260503183024 | 16 | 243 | 35.4 | 41.8 | 0.00 | 0.00 | 0.00 | 39 | 1013.9 |
| 20260503181522 | 15 | 238 | 32.2 | 46.7 | 0.00 | 0.00 | 0.00 | 37 | 1014.0 |
| 20260503180024 | 15 | 225 | 33.8 | 51.5 | 0.00 | 0.00 | 0.00 | 36 | 1014.4 |
| 20260503174515 | 15 | 246 | 35.4 | 46.7 | 0.00 | 0.00 | 0.00 | 39 | 1014.4 |
| 20260503173015 | 15 | 249 | 30.6 | 45.1 | 0.00 | 0.00 | 0.00 | 42 | 1014.7 |
| 20260503171524 | 15 | 217 | 37.0 | 48.3 | 0.00 | 0.00 | 0.00 | 38 | 1014.9 |
| 20260503081527 | 0 | 240 | 1.6 | 3.2 | 0.00 | 0.00 | 0.00 | 82 | 1016.6 |
| 20260503071519 | 0 | 240 | 3.2 | 3.2 | 0.00 | 0.00 | 0.00 | 81 | 1016.8 |
| 20260503054526 | 1 | 240 | 3.2 | 4.8 | 0.00 | 0.00 | 0.00 | 79 | 1017.2 |
| 20260503053036 | 1 | 240 | 3.2 | 4.8 | 0.00 | 0.00 | 0.00 | 79 | 1017.2 |
| 20260503051525 | 2 | 240 | 4.8 | 4.8 | 0.00 | 0.00 | 0.00 | 78 | 1017.3 |
| 20260503050021 | 2 | 240 | 3.2 | 3.2 | 0.00 | 0.00 | 0.00 | 78 | 1017.3 |
| 20260503044529 | 2 | 240 | 3.2 | 3.2 | 0.00 | 0.00 | 0.00 | 77 | 1017.4 |
| 20260503043028 | 2 | 240 | 3.2 | 3.2 | 0.00 | 0.00 | 0.00 | 78 | 1017.3 |
| 20260503041528 | 2 | 240 | 1.6 | 1.6 | 0.00 | 0.00 | 0.00 | 78 | 1017.3 |
| 20260503040030 | 2 | 240 | 1.6 | 3.2 | 0.00 | 0.00 | 0.00 | 76 | 1017.3 |
| 20260503034538 | 2 | 240 | 3.2 | 3.2 | 0.00 | 0.00 | 0.00 | 77 | 1017.4 |
| 20260503033007 | 3 | 240 | 1.6 | 3.2 | 0.00 | 0.00 | 0.00 | 76 | 1017.4 |
| 20260503031503 | 3 | 235 | 4.8 | 4.8 | 0.00 | 0.00 | 0.00 | 77 | 1017.4 |
| 20260503030022 | 3 | 209 | 3.2 | 4.8 | 0.00 | 0.00 | 0.00 | 80 | 1017.4 |
| 20260503024520 | 3 | 209 | 3.2 | 4.8 | 0.00 | 0.00 | 0.00 | 81 | 1017.5 |
| 20260503023014 | 3 | 209 | 4.8 | 4.8 | 0.00 | 0.00 | 0.00 | 79 | 1017.5 |
| 20260503021513 | 5 | 209 | 4.8 | 6.4 | 0.00 | 0.00 | 0.00 | 76 | 1017.5 |
| 20260503020009 | 5 | 209 | 4.8 | 6.4 | 0.00 | 0.00 | 0.00 | 76 | 1017.4 |
| 20260503014531 | 5 | 263 | 3.2 | 4.8 | 0.00 | 0.00 | 0.00 | 76 | 1017.3 |
| 20260503013018 | 5 | 263 | 3.2 | 4.8 | 0.00 | 0.00 | 0.00 | 76 | 1017.2 |
| 20260503011511 | 5 | 263 | 3.2 | 4.8 | 0.00 | 0.00 | 0.00 | 76 | 1017.3 |
| 20260503010010 | 5 | 263 | 1.6 | 3.2 | 0.00 | 0.00 | 0.00 | 76 | 1017.2 |
| 20260503004510 | 6 | 263 | 3.2 | 4.8 | 0.00 | 0.00 | 0.00 | 72 | 1017.1 |
| 20260503003024 | 7 | 263 | 3.2 | 4.8 | 0.00 | 0.00 | 0.00 | 68 | 1017.1 |
| 20260503001524 | 7 | 263 | 3.2 | 3.2 | 0.00 | 0.00 | 0.00 | 59 | 1017.1 |
| 20260503000018 | 7 | 263 | 1.6 | 3.2 | 0.00 | 0.05 | 0.00 | 50 | 1017.1 |
| 20260502234515 | 7 | 267 | 3.2 | 8.0 | 0.00 | 0.05 | 0.00 | 49 | 1017.0 |
| 20260502233015 | 8 | 284 | 4.8 | 11.3 | 0.00 | 0.05 | 0.00 | 47 | 1017.0 |
| 20260502231519 | 8 | 275 | 9.7 | 16.1 | 0.00 | 0.05 | 0.00 | 44 | 1017.1 |
| 20260502230011 | 8 | 282 | 8.0 | 14.5 | 0.00 | 0.05 | 0.00 | 42 | 1017.2 |
| 20260502224524 | 8 | 284 | 11.3 | 17.7 | 0.00 | 0.05 | 0.00 | 45 | 1017.2 |
| 20260502223024 | 8 | 298 | 9.7 | 19.3 | 0.00 | 0.05 | 0.00 | 44 | 1017.2 |
| 20260502221521 | 8 | 285 | 16.1 | 19.3 | 0.00 | 0.05 | 0.00 | 42 | 1017.3 |